sat.trackr.live / text

‹ back to catalog

ONEWEB-0147

NORAD 47293 · 2020-100AM

PAYLOAD ACTIVE UNKNOWN

§ Identity

Operator
Country
UK
Launch date
2020-12-18
Launch site
VOSTO
Launch vehicle
Mass (kg)
RCS (m²)

Purposes: comms

External: N2YO · Heavens-Above · Gunter

§ Orbital elements

Epoch: 2026-09-20T03:20:12.625728Z

Period
109.72 min
Inclination
87.8988°
Eccentricity
0.0001831
Mean motion
13.12442272 rev/d
Perigee alt
1,212.3 km
Apogee alt
1,215.1 km
Semi-major
7,591.9 km
B*
-7.8320e-4
RAAN
331.7976°
Arg perigee
94.0669°
Mean anomaly
266.0669°
Rev number
27,702

§ Raw data

ONEWEB-01471 47293U 20100AM  26263.13903502 -.00000269  00000+0 -78320-3 0  99912 47293  87.8988 331.7976 0001831  94.0669 266.0669 13.12442272277029

JSON: /api/v1/satellites/47293 · /tle

For live sub-satellite position, see the globe view (requires WebGL).

§ Visibility from observer

Set your observer location to see the next 7 days of passes ≥ 10°. The values pass through the URL so the page stays shareable.

No JS? Fill the form by hand. The geolocation button needs JavaScript.